Content
SEND FEEDBACK

Daily
Averages
Monthly
Summary
Canada

RICHMOND NATURE PARK, BRITISH COLUMBIA


Home > North America > Canada > British Columbia
Elevation: 10 feet     Latitude: 49 10N     Longitude: 123 05W

WEATHER
 
SELECT A DAY
Number of Records: 199,605;   Date Range: 1/1/95 - 12/17/14
 
SHARE

PRINT THIS DATA

[ ← Previous Day ]
WEATHER ALMANAC - FEBRUARY 22, 2013
[ Next Day → ]
[ °C ]   °F
Weather ElementAverageHighLow
Temperature43.1 °F48.2 °F (2:00 pm)39.2 °F (5:00 am)
Dewpoint24.7 °F41 °F (2:00 pm) (7:00 pm)
Humidity71.8 %87 % (5:00 am)47 % (4:00 pm)
Wind Speed16 mph26.5 mph (12:58 pm)
Wind Gust31.1 mph (5:00 pm)
Weather ElementAverage
Visibility11.2 mi
Wind DirectionSSE (164.7 °)

Weather ElementTotal
Precipitation---
Heating Degree Days21.3 (Base 65)
Averaged from 38 records on February 22, 2013
WEATHER CONDITIONS BREAKOUT
WIND DIRECTION BREAKOUT
WEATHER BY HOUR - FEBRUARY 22, 2013
[ °C ]   °F
Local TimeTemperatureDewpointHumidityBarometerVisibilityWind DirectionWind SpeedGust SpeedPrecipitationEventsConditions
1:00 AM42.8 °F33.8 °F70 %29.99 in12.0 miSSW (200°)13.8 mph19.6 mphRainLight Rain
2:00 AM42.8 °F35.6 °F76 %29.99 in10.0 miSSE (160°)6.9 mphRainLight Rain
3:00 AM41.0 °F35.6 °F81 %29.95 in8.0 miSE (130°)11.5 mphRainLight Rain
4:00 AM41.0 °F36.0 °F74 %29.91 in7.0 miESE (120°)11.5 mphRainLight Rain
4:00 AM41.0 °F35.6 °F81 %29.91 in8.0 miESE (120°)11.5 mphRainLight Rain
5:00 AM39.2 °F35.6 °F87 %29.87 in8.0 miEast (80°)13.8 mph20.7 mphRainLight Rain
5:19 AM41.0 °F0.0 °F8.0 miEast (90°)18.4 mph24.2 mphRainRain
5:38 AM41.0 °F0.0 °F8.0 miEast (100°)16.1 mphRainLight Rain
6:00 AM41.0 °F35.6 °F81 %29.82 in8.0 miEast (90°)16.1 mphRainLight Rain
7:00 AM42.8 °F37.4 °F81 %29.80 in6.0 miSE (130°)15.0 mphRainLight Rain
8:00 AM42.8 °F37.4 °F81 %29.75 in6.0 miSE (130°)17.3 mph25.3 mphRainLight Rain
9:00 AM42.8 °F37.4 °F81 %29.72 in4.0 miESE (120°)18.4 mph25.3 mphRainLight Rain
9:14 AM42.8 °F0.0 °F4.0 miSE (140°)18.4 mph24.2 mphRainLight Rain
9:45 AM42.8 °F0.0 °F4.0 miESE (120°)17.3 mphRainLight Rain
10:00 AM43.0 °F38.0 °F77 %29.69 in4.0 miESE (120°)17.3 mphRainLight Rain
10:00 AM42.8 °F39.2 °F87 %29.69 in4.0 miESE (120°)17.3 mphRainLight Rain
10:33 AM42.8 °F0.0 °F8.0 miSE (130°)17.3 mphOvercast
10:58 AM42.8 °F0.0 °F8.0 miSE (130°)15.0 mphOvercast
11:00 AM42.8 °F37.4 °F81 %29.66 in8.0 miSE (140°)16.1 mph21.9 mphOvercast
11:26 AM42.8 °F0.0 °F8.0 miSE (140°)18.4 mph24.2 mphRainLight Rain
12:00 PM42.8 °F37.4 °F81 %29.63 in8.0 miSE (140°)17.3 mphRainLight Rain
12:08 PM42.8 °F0.0 °F8.0 miSE (140°)13.8 mph20.7 mphOvercast
12:58 PM44.6 °F0.0 °F12.0 miSSE (160°)26.5 mphMostly Cloudy
1:00 PM44.6 °F37.4 °F76 %29.59 in12.0 miSSE (160°)26.5 mphMostly Cloudy
2:00 PM48.2 °F41.0 °F76 %29.58 in15.0 miSouth (180°)20.7 mph29.9 mphMostly Cloudy
2:49 PM46.4 °F0.0 °F12.0 miSouth (190°)20.7 mphRainLight Rain
3:00 PM46.4 °F37.4 °F71 %29.59 in12.0 miSW (230°)20.7 mph27.6 mphRainLight Rain Showers
3:20 PM48.2 °F0.0 °F15.0 miSSW (200°)15.0 mphMostly Cloudy
4:00 PM46.4 °F33.8 °F62 %29.60 in15.0 miWSW (240°)18.4 mph24.2 mphScattered Clouds
4:00 PM47.0 °F33.0 °F47 %29.60 in15.0 miWSW (240°)18.4 mphRainLight Rain Showers
5:00 PM44.6 °F30.2 °F57 %29.61 in20.0 miSW (230°)24.2 mph31.1 mphMostly Cloudy
6:00 PM42.8 °F30.2 °F61 %29.64 in20.0 miSW (230°)19.6 mphMostly Cloudy
7:00 PM44.6 °F30.2 °F57 %29.68 in20.0 miWSW (250°)15.0 mphMostly Cloudy
8:00 PM42.8 °F30.2 °F61 %29.70 in20.0 miSW (230°)9.2 mphMostly Cloudy
9:00 PM41.0 °F30.2 °F65 %29.72 in20.0 miSW (220°)12.7 mphMostly Cloudy
10:00 PM41.0 °F31.0 °F56 %29.75 in19.0 miSW (220°)8.1 mphScattered Clouds
10:00 PM41.0 °F30.2 °F65 %29.75 in20.0 miSW (220°)9.2 mphScattered Clouds
11:00 PM41.0 °F30.2 °F65 %29.79 in20.0 miWest (270°)4.6 mphScattered Clouds
Hourly data recorded from CYVR, located miles away from Richmond Nature Park, British Columbia







STORIES FROM OUR PARTNERS